Regional Weather Roundup
Issued by NWS

Home | Current Version | Previous Version | Graphics & Text | Print | Product List | Glossary On
Versions: 1 2 3 4 5 6 7 8 9 10 11 12 13 14 15 16 17 18 19 20 21 22 23 24 25 26 27 28 29 30 31 32 33 34 35 36 37 38 39 40 41 42 43 44 45 46 47 48 49 50
683
ASUS43 KMKX 250811
RWRWI

WISCONSIN REGIONAL WEATHER ROUNDUP
NATIONAL WEATHER SERVICE MILWAUKEE/SULLIVAN WI
300 AM CDT TUE APR 25 2017

NOTE: "FAIR" INDICATES FEW OR NO CLOUDS BELOW 12,000 FEET WITH NO
SIGNIFICANT WEATHER AND/OR OBSTRUCTIONS TO VISIBILITY.

WIZ001-002-006>008-014>016-023>028-250900-
NORTHWEST WISCONSIN

CITY           SKY/WX    TMP DP  RH WIND       PRES   REMARKS
SUPERIOR ARPT  DRIZZLE   38  35  90 E10       29.64F WCI  31
ASHLAND        CLOUDY    39  37  92 NW10      29.60F WCI  32
HAYWARD        CLOUDY    62  32  32 S10G20    29.60R
SIREN          CLOUDY    55  42  61 CALM      29.54F
CUMBERLAND     CLOUDY    55  32  41 E5        29.57F
RICE LAKE      CLOUDY    60  31  33 SE9       29.59F
CHETEK         CLOUDY    59  35  40 SE8G17    29.58S
LADYSMITH      CLOUDY    58  35  41 S7        29.64S
EAU CLAIRE     CLOUDY    60  31  33 SE7       29.57F
MENOMONIE      CLOUDY    60  32  34 SE9       29.56F
NEW RICHMOND   CLOUDY    60  32  35 SE5       29.54F
OSCEOLA        CLOUDY    56  45  67 E8        29.55F
$$

WIZ003>005-009-010-017-018-250900-
NORTH CENTRAL WISCONSIN

CITY           SKY/WX    TMP DP  RH WIND       PRES   REMARKS
MANITOWISH WTR CLOUDY    51  32  48 SE3       29.67F
ARBOR VITAE    CLOUDY    52  35  52 SE8       29.66F
WOODRUFF       CLOUDY    52  35  52 SE8       29.66F
RHINELANDER    CLOUDY    51  35  54 E9        29.69F
EAGLE RIVER    CLOUDY    46  32  57 SE7       29.69F
LAND O LAKES   CLOUDY    46  33  59 SE9       29.71F
PHILLIPS       CLOUDY    52  35  52 E3        29.63F
TOMAHAWK       PTCLDY    51  31  46 CALM      29.67F
MEDFORD        CLOUDY    55  34  45 SE9       29.64F
MERRILL        CLOUDY    54  33  45 SE8       29.68S
$$

WIZ029-030-035-036-043>047-250900-
CENTRAL WISCONSIN

CITY           SKY/WX    TMP DP  RH WIND       PRES   REMARKS
WAUSAU         CLOUDY    58  32  37 SE8       29.66F
MOSINEE        CLOUDY    59  30  33 SE14      29.68F
MARSHFIELD     CLOUDY    58  31  35 SE12      29.64F
STEVENS POINT  CLOUDY    58  30  34 SE8G16    29.68F
WAUPACA        CLOUDY    57  33  41 E7        29.71F
WAUTOMA        CLOUDY    59  34  39 E6        29.69F
WISC RAPIDS    CLOUDY    60  32  34 SE8       29.67
CAMP DOUGLAS   CLOUDY    51  35  55 E6        29.65F
$$

WIZ011>013-019>022-031-037>040-048>050-250900-
NORTHEAST WISCONSIN

CITY           SKY/WX    TMP DP  RH WIND       PRES   REMARKS
ANTIGO         CLOUDY    46  35  63 SE12      29.71S
SHAWANO        CLOUDY    48  38  68 CALM      29.73F
OCONTO         CLOUDY    49  35  58 SE8       29.74R
STURGEON BAY   CLOUDY    51  39  63 SE9       29.76F
GREEN BAY      CLOUDY    47  38  71 E6        29.75S
MANITOWOC      CLOUDY    52  35  52 S7        29.76F
APPLETON       CLEAR     52  30  43 E5        29.71F
CLINTONVILLE   CLOUDY    55  32  41 SE10      29.71F
OSHKOSH        CLOUDY    54  34  46 SE3       29.72S
$$

WIZ032>034-041-042-053>061-250900-
SOUTHWEST WISCONSIN

CITY           SKY/WX    TMP DP  RH WIND       PRES   REMARKS
LA CROSSE      CLEAR     63  30  28 S9        29.58F
SPARTA         CLEAR     60  32  34 SE12      29.62F
VIROQUA        CLEAR     56  31  39 SE12      29.63F
BOSCOBEL       CLEAR     60  32  34 VRB5      29.63F
PRAIRIE DU CHI CLEAR     57  30  35 SE6       29.61F
PLATTEVILLE    CLOUDY    55  36  48 SE10      29.65F
$$

WIZ056-057-062-063-064-067-068-250900-
SOUTH CENTRAL WISCONSIN

CITY           SKY/WX    TMP DP  RH WIND       PRES   REMARKS
REEDSBURG      PTCLDY    56  33  41 SE3       29.66F
BARABOO/DELLS  PTCLDY    56  33  42 SE8       29.67F
LONE ROCK      CLEAR     53  36  52 SE7       29.65F
MINERAL POINT  CLEAR     54  34  47 SE9       29.66F
MADISON        CLOUDY    58  35  42 SE12      29.68F
MIDDLETON      CLOUDY    58  36  42 SE6       29.69F
WATERTOWN      CLOUDY    56  37  47 SE12      29.70F
MONROE         CLEAR     54  36  50 SE12G17   29.68F
JANESVILLE     PTCLDY    55  36  47 SE9       29.70S
$$

WIZ051-052-058>065-066-070>072-250900-
SOUTHEAST WISCONSIN

CITY           SKY/WX    TMP DP  RH WIND       PRES   REMARKS
MILWAUKEE      MOCLDY    53  38  56 SE10      29.73F
WAUKESHA       PTCLDY    52  34  50 SE8       29.74F
MILWAUKEE/TIMM MOCLDY    54  32  43 SE5       29.75F
RACINE         PTCLDY    53  36  52 SE12G20   29.75F
KENOSHA        PTCLDY    54  37  52 SE9       29.73F
FOND DU LAC    CLOUDY    56  33  42 SE14      29.72F
SHEBOYGAN      CLOUDY    50  37  61 S6        29.75F
WEST BEND      CLOUDY    54  34  47 SE3       29.75S
JUNEAU         CLOUDY    55  37  50 SE9       29.72F
$$

LSZ147-162-250900-
LAKE SUPERIOR

STATION/POSITION TIME  TEMP    WIND        PRES    WAVE
                       AIR SEA DIR/SP/G            HT/PER
                 (UTC) (F)     (DEG/KT/KT) (MB)    (FT/S)
DEVILS ISLAND    0800   38      30/ 18/ 19 1003.3F
PORT WING        0720   38      20/  9/ 19 1004.1R
SAXON HARBOR     0800   40     360/  2/ 17 1001.4
$$

LMZ867-665-643>646-250900-
LAKE MICHIGAN

STATION/POSITION TIME  TEMP    WIND        PRES    WAVE
                       AIR SEA DIR/SP/G            HT/PER
                 (UTC) (F)     (DEG/KT/KT) (MB)    (FT/S)
CHAMBERS ISLAND  0740   50     130/  8/ 15 1008.1F
N MID LAKE BUOY  0750   42 37  110/  8/  8 1010.0S   2/ 4
NORTHPORT PIER   0740   50     150/  6/  8 1009.5S
KEWAUNEE LAKESHO 0748   50      CALM  /  2 1007.7F
SHEBOYGAN LAKESH 0800   49     170/ 14/ 15 1007.2F
PORT WASHINGTON  0730   51     140/  4/  6 1008.8S
MILWAUKEE LAKESH 0750   48      60/  2/  3   N/A
S MID LAKE BUOY  0650   47 41  100/  8/ 10 1008.7F   1
KENOSHA   LAKESH 0800   50     150/  9/ 11 1007.1
$$

TC  - TEMPERATURE IN CELSIUS
VSB - VISIBILITY IN STATUTE MILES
WCI - WIND CHILL INDEX
HX  - HEAT INDEX





USA.gov is the U.S. government's official web portal to all federal, state and local government web resources and services.